Temp
86 97 102 101 78 83 77 76 82 79 81 86 87 83 79 80 75 65 83 88 88 87 86 88 80 80 79 79 80 80 79 79 79 79 79 79 79 80 80 80 80 80 80 81 81 81 81 81 81
104 104 102 94 72 54 74 83 79 81 84 88 88 86 82 77 85 78 84 84 89 86 84 84 79 79 79 79 79 79 79 79 79 79 79 79 79 79 80 80 80 80 80 80 80 80 81 81 80
97 106 88 86 56 63 72 80 83 84 85 87 84 86 80 72 85 81 86 86 88 85 84 83 79 79 79 79 79 79 79 79 79 79 79 79 79 79 79 79 79 79 79 79 79 79 79 79 80
103 102 99 81 78 82 81 84 86 86 88 90 86 76 79 81 82 86 86 86 83 87 85 81 79 79 79 79 79 79 79 79 79 79 78 78 78 78 78 78 79 79 79 79 79 78 78 78 78
104 92 85 81 79 84 88 88 84 83 84 85 87 76 72 77 82 85 83 85 83 80 85 85 78 78 78 78 78 78 78 77 77 78 78 78 78 78 78 78 78 78 78 78 78 78 78 78 78
95 75 66 76 78 83 87 88 86 84 85 82 80 73 63 72 77 80 85 87 88 82 82 81 78 77 76 76 76 76 76 76 76 76 76 77 77 77 77 77 78 78 78 78 78 77 77 77 77
88 76 80 81 79 80 83 88 80 77 76 77 79 72 64 68 78 84 82 84 85 88 85 81 79 78 76 76 75 75 75 75 75 75 75 76 75 76 76 76 76 76 77 77 77 77 76 76 76
99 97 84 77 76 77 82 85 84 79 74 82 80 68 61 65 77 82 83 84 86 87 87 83 81 81 81 83 76 75 75 75 75 75 75 76 78 78 77 77 74 75 75 75 77 76 75 75 75
91 63 82 81 77 79 86 81 81 83 70 67 66 67 66 68 74 77 78 81 82 81 81 81 74 71 74 77 78 79 77 75 75 76 74 74 78 81 84 75 73 74 74 74 74 73 73 74 75
82 74 82 89 88 84 85 84 81 74 70 63 61 66 67 69 75 77 79 77 80 80 82 83 81 79 78 77 75 79 81 85 82 82 80 77 79 77 75 76 72 72 73 73 73 72 73 75 87
95 84 88 88 89 90 84 81 84 75 61 63 59 61 64 66 70 72 74 74 72 76 80 85 83 82 84 86 85 86 85 83 83 82 81 81 81 82 82 80 81 80 73 78 73 75 78 79 80
87 90 89 86 88 86 81 82 72 73 61 65 66 69 69 66 63 65 67 73 75 77 79 82 83 83 81 84 84 84 84 83 82 82 81 78 80 81 81 83 82 81 81 78 76 77 72 68 73
88 87 88 87 87 86 85 78 68 61 65 68 68 68 65 63 64 65 69 76 78 76 78 81 81 79 80 80 80 81 81 82 81 82 81 78 78 75 74 73 77 80 82 82 79 79 78 75 74
90 88 86 87 85 83 77 75 76 67 71 70 70 70 73 73 74 72 74 77 77 77 77 79 80 77 77 77 77 79 80 81 80 80 79 78 77 74 73 74 76 76 74 74 75 77 75 78 77
90 82 83 83 83 80 81 72 66 72 73 70 71 72 74 75 77 78 78 77 78 78 78 78 79 79 76 76 76 78 80 79 78 79 78 75 71 68 67 73 71 75 74 72 74 74 78 79 80
84 83 68 82 82 81 80 65 70 74 72 69 72 74 75 76 79 79 78 77 78 77 76 77 79 77 75 74 75 77 74 77 78 78 76 71 70 69 67 67 66 74 73 67 69 70 73 77 77
61 51 55 75 84 82 78 64 70 74 70 70 73 74 72 74 77 77 79 73 78 76 76 76 76 74 73 73 73 73 75 76 77 77 72 69 69 69 66 67 71 68 66 68 68 67 68 65 70
66 58 76 77 79 80 75 67 67 70 68 72 70 71 73 72 74 77 77 78 78 77 76 74 73 71 71 74 74 76 76 76 76 72 70 68 66 67 68 67 70 68 67 69 68 66 69 69 67
85 83 80 80 81 78 74 69 67 67 67 72 71 70 71 74 77 77 78 79 77 76 72 70 71 69 70 72 72 71 71 73 71 70 68 66 67 65 64 66 65 69 64 65 68 67 68 66 69
85 81 70 72 78 77 76 70 67 67 68 70 69 69 71 71 72 74 74 77 75 73 72 71 69 67 66 71 65 67 68 70 68 68 68 68 67 66 66 65 66 67 69 66 65 64 64 66 64
73 56 53 76 76 79 74 66 63 68 73 71 71 72 74 71 72 72 72 74 73 73 72 71 68 66 66 65 66 66 69 69 69 66 67 66 67 66 68 67 67 66 65 66 65 65 63 59 65
76 74 77 77 75 67 70 61 62 66 67 68 69 67 66 74 75 77 72 72 72 73 74 72 69 66 65 66 66 63 62 61 64 65 65 65 67 67 67 65 65 64 64 63 62 63 62 62 60
77 83 80 79 75 67 63 43 55 66 61 61 60 63 69 74 77 75 74 73 73 74 74 72 70 66 65 65 66 65 64 64 64 64 65 65 66 65 66 66 64 64 62 64 63 64 63 62 61
84 81 80 79 70 44 61 53 54 60 64 65 68 72 72 74 76 74 74 74 75 76 76 75 70 65 66 65 65 65 63 64 63 65 65 64 65 65 66 66 65 65 64 64 65 65 64 63 63
81 76 64 60 62 61 66 66 57 62 67 72 70 70 72 72 73 71 70 75 75 74 74 74 70 66 67 67 65 65 63 64 65 65 64 63 67 61 63 65 63 64 63 63 64 63 63 62 63
79 74 66 50 58 64 69 45 54 68 69 68 71 67 74 72 72 72 73 74 75 74 72 73 68 65 64 65 67 66 64 66 66 63 66 64 67 67 67 67 66 65 64 59 62 62 61 61 59
76 72 77 67 69 60 53 51 69 74 71 70 71 72 71 70 73 72 73 73 73 72 71 71 67 65 67 67 68 66 66 65 63 64 64 66 65 66 66 66 66 66 65 62 61 59 60 63 58
78 82 67 71 56 53 55 50 55 63 68 70 68 66 59 74 71 71 72 72 72 72 71 68 66 66 66 66 69 68 67 66 65 66 66 66 65 66 67 65 66 66 66 61 61 63 65 63 62
75 70 72 71 52 54 50 42 69 68 69 70 74 72 72 71 70 72 71 73 73 73 71 67 67 65 66 66 70 67 67 67 67 66 66 68 67 66 66 66 65 67 66 66 65 65 65 64 63
77 72 71 61 57 63 62 49 72 71 73 72 73 74 75 74 73 74 74 72 68 71 69 68 65 66 69 68 69 67 67 65 65 66 66 67 64 66 63 68 64 64 68 67 67 65 67 65 65
MSLP
1009.60 1008.70 1007.61 1005.67 1005.28 1004.28 1004.70 1006.51 1007.26 1007.46 1008.75 1009.73 1010.23 1010.38 1011.48 1011.91 1012.19 1014.85 1016.30 1016.69 1016.58 1017.08 1017.71 1017.83 1018.44 1018.40 1018.35 1018.50 1018.65 1018.73 1018.76 1018.85 1018.88 1018.88 1018.91 1018.91 1018.92 1018.86 1018.86 1018.72 1018.69 1018.58 1018.40 1018.27 1018.03 1017.83 1017.73 1017.86 1017.96
1007.63 1006.92 1006.31 1004.87 1005.72 1005.91 1005.80 1006.46 1007.58 1008.92 1009.49 1009.80 1010.27 1010.87 1011.76 1012.90 1014.03 1015.90 1016.31 1016.97 1017.05 1017.87 1018.43 1018.54 1018.95 1018.98 1018.94 1018.92 1018.93 1019.07 1019.14 1019.14 1019.14 1019.15 1019.13 1019.14 1019.17 1019.13 1019.13 1019.04 1018.98 1018.92 1018.83 1018.68 1018.51 1018.20 1018.04 1018.08 1018.20
1008.23 1006.36 1005.94 1004.82 1007.39 1006.13 1006.23 1006.96 1007.98 1009.31 1010.05 1009.68 1010.61 1012.08 1013.73 1015.19 1014.91 1016.84 1017.21 1017.29 1017.37 1018.07 1018.60 1019.25 1019.42 1019.41 1019.35 1019.31 1019.30 1019.34 1019.39 1019.38 1019.50 1019.60 1019.53 1019.60 1019.53 1019.51 1019.41 1019.31 1019.26 1019.16 1019.13 1019.04 1018.98 1018.86 1018.68 1018.69 1018.54
1006.46 1004.79 1004.00 1004.69 1005.08 1006.11 1006.60 1007.38 1008.23 1009.05 1009.64 1010.23 1011.69 1013.58 1016.03 1017.00 1016.73 1017.30 1017.63 1017.60 1018.00 1018.20 1018.80 1019.58 1019.72 1019.75 1019.81 1019.79 1019.76 1019.80 1019.81 1019.78 1019.75 1019.86 1019.86 1019.85 1019.82 1019.87 1019.75 1019.68 1019.56 1019.47 1019.43 1019.30 1019.26 1019.24 1019.16 1019.15 1019.13
1006.18 1005.54 1003.87 1004.83 1005.82 1006.36 1006.86 1007.84 1008.95 1009.61 1010.12 1010.75 1012.01 1014.76 1017.14 1018.49 1018.53 1018.28 1018.20 1018.10 1018.34 1018.99 1018.83 1019.68 1020.12 1020.26 1020.30 1020.24 1020.20 1020.24 1020.20 1020.21 1020.26 1020.17 1020.17 1020.10 1020.06 1020.05 1019.91 1019.87 1019.85 1019.71 1019.69 1019.57 1019.56 1019.49 1019.35 1019.32 1019.37
1004.69 1006.83 1005.81 1005.33 1006.75 1007.44 1007.93 1008.76 1009.59 1010.58 1011.28 1012.74 1013.92 1016.56 1019.20 1019.83 1019.12 1019.04 1018.63 1018.37 1018.38 1019.19 1019.61 1020.20 1020.58 1020.74 1020.92 1020.90 1020.79 1020.76 1020.75 1020.74 1020.68 1020.66 1020.55 1020.29 1020.23 1020.09 1020.05 1019.99 1020.01 1019.88 1019.85 1019.66 1019.73 1019.66 1019.53 1019.39 1019.44
1005.29 1006.44 1004.89 1005.59 1006.90 1007.99 1009.01 1009.98 1011.18 1012.22 1013.18 1014.60 1015.42 1016.90 1020.02 1020.29 1019.83 1019.38 1019.36 1019.16 1019.04 1018.95 1019.51 1020.37 1020.76 1020.93 1021.02 1021.39 1021.33 1021.26 1021.19 1021.10 1020.93 1020.89 1020.74 1020.55 1020.34 1020.06 1020.04 1020.00 1020.06 1020.01 1019.82 1019.77 1019.70 1019.72 1019.61 1019.58 1019.52
1003.16 1003.28 1004.19 1006.35 1006.20 1008.27 1010.42 1011.00 1012.64 1013.59 1015.01 1015.70 1016.87 1017.90 1020.30 1020.97 1020.56 1020.18 1019.79 1019.47 1019.55 1019.53 1019.73 1020.35 1020.92 1021.00 1021.12 1021.01 1021.69 1021.55 1021.52 1021.46 1021.26 1021.03 1020.85 1020.40 1020.06 1019.82 1019.53 1019.73 1019.90 1020.01 1019.94 1019.84 1019.59 1019.75 1019.84 1019.70 1019.52
1005.80 1007.34 1004.24 1005.45 1005.13 1008.21 1010.45 1011.63 1014.14 1015.32 1017.02 1018.43 1019.54 1020.18 1021.28 1021.59 1021.15 1020.63 1020.26 1019.65 1020.09 1020.50 1021.01 1021.43 1021.88 1022.00 1022.01 1021.73 1021.56 1021.29 1021.26 1021.40 1021.20 1021.17 1020.91 1020.71 1020.22 1019.55 1019.07 1019.99 1020.16 1020.09 1020.02 1019.72 1019.72 1019.68 1019.68 1019.54 1019.46
1005.25 1007.00 1005.96 1006.71 1007.63 1008.85 1010.53 1011.69 1013.75 1015.88 1017.73 1019.76 1020.83 1021.59 1021.95 1021.79 1020.87 1020.36 1020.03 1020.22 1020.57 1020.80 1020.91 1021.13 1021.51 1021.89 1021.86 1021.66 1021.62 1021.12 1020.63 1020.48 1020.66 1020.57 1020.59 1020.48 1020.25 1020.40 1020.32 1019.91 1020.18 1020.15 1020.10 1019.95 1019.74 1019.63 1019.55 1019.20 1018.02
1004.50 1005.62 1006.52 1007.83 1008.55 1009.38 1011.11 1012.90 1014.34 1016.30 1018.96 1020.42 1021.41 1022.15 1022.44 1022.30 1021.91 1021.73 1021.64 1021.87 1022.06 1021.59 1021.09 1020.72 1021.25 1021.62 1021.11 1020.69 1020.83 1020.53 1020.37 1020.74 1020.48 1020.39 1020.48 1020.06 1019.83 1019.26 1019.26 1019.25 1019.34 1019.49 1019.94 1019.48 1019.87 1019.44 1019.14 1018.80 1018.61
1005.76 1006.73 1007.75 1009.05 1009.69 1010.52 1012.02 1014.03 1015.99 1017.24 1020.06 1021.17 1021.68 1021.96 1022.36 1022.70 1022.82 1022.80 1022.54 1022.05 1022.00 1021.86 1021.75 1021.56 1021.80 1021.74 1021.91 1021.54 1021.30 1021.10 1020.84 1020.86 1020.70 1020.55 1020.50 1020.56 1020.01 1019.27 1018.93 1018.69 1018.52 1018.65 1018.54 1018.93 1019.67 1019.75 1020.00 1020.04 1019.80
1006.27 1007.63 1008.63 1009.59 1010.17 1011.09 1012.58 1014.29 1017.08 1019.30 1020.58 1021.35 1021.83 1022.23 1022.57 1022.79 1022.92 1023.06 1022.88 1022.15 1022.00 1022.17 1022.20 1022.06 1022.32 1022.55 1022.41 1021.98 1021.99 1021.60 1021.20 1021.00 1021.12 1020.49 1020.48 1020.91 1020.50 1019.97 1020.01 1019.62 1019.06 1018.70 1018.35 1018.06 1018.33 1018.47 1018.70 1019.19 1019.37
1006.95 1008.32 1009.23 1009.80 1010.74 1012.00 1013.41 1015.23 1016.13 1019.26 1020.10 1020.68 1021.22 1021.41 1021.51 1021.90 1022.14 1022.44 1022.10 1021.88 1022.08 1022.28 1022.48 1022.48 1022.34 1022.77 1022.80 1022.47 1022.41 1021.86 1021.26 1020.97 1020.98 1020.59 1020.64 1020.78 1020.58 1020.56 1020.36 1019.99 1019.33 1018.92 1019.23 1019.08 1018.73 1018.33 1018.40 1018.09 1017.94
1008.05 1008.79 1009.78 1010.45 1010.97 1011.86 1013.24 1014.73 1016.84 1018.56 1019.54 1020.03 1020.55 1020.88 1021.08 1021.38 1021.47 1021.24 1021.62 1021.92 1021.97 1022.03 1022.15 1022.44 1022.18 1022.52 1022.85 1022.56 1022.65 1021.97 1021.43 1021.54 1021.25 1020.84 1020.81 1020.96 1021.31 1021.41 1021.14 1020.09 1019.89 1019.62 1019.75 1019.47 1019.07 1018.89 1018.20 1017.68 1017.32
1008.52 1008.65 1009.26 1010.34 1010.87 1011.69 1012.51 1014.28 1017.01 1018.51 1019.13 1019.61 1019.93 1020.15 1020.55 1020.67 1020.62 1021.10 1021.62 1021.89 1022.11 1022.31 1022.40 1022.83 1022.64 1022.76 1023.06 1022.96 1022.74 1022.33 1022.30 1021.89 1021.34 1021.13 1021.27 1021.75 1021.74 1021.60 1021.31 1020.87 1020.43 1019.54 1019.68 1019.77 1019.48 1019.04 1018.56 1017.57 1017.20
1012.14 1011.06 1010.17 1008.96 1010.39 1010.39 1012.16 1014.59 1016.80 1018.06 1018.85 1019.22 1019.33 1019.63 1020.14 1020.29 1020.66 1021.13 1021.47 1022.24 1022.44 1022.95 1023.06 1023.06 1023.19 1023.43 1023.62 1023.26 1022.86 1022.46 1022.00 1021.60 1021.40 1021.24 1021.80 1022.16 1022.16 1021.74 1021.56 1020.99 1020.07 1020.30 1020.06 1019.38 1019.14 1018.83 1018.77 1018.60 1017.87
1008.17 1009.23 1007.48 1007.17 1008.87 1009.96 1010.99 1013.94 1016.64 1017.99 1018.71 1018.59 1019.00 1019.36 1019.68 1020.25 1020.67 1021.41 1021.46 1021.75 1022.39 1022.90 1023.36 1023.60 1023.86 1024.06 1023.98 1023.07 1022.53 1022.02 1021.77 1021.60 1021.49 1021.89 1022.28 1022.43 1022.40 1021.78 1021.23 1020.82 1020.07 1020.20 1019.95 1019.46 1019.18 1019.08 1018.66 1018.42 1018.24
1005.72 1006.28 1006.64 1007.53 1009.01 1008.97 1010.38 1013.19 1015.88 1017.58 1018.28 1018.00 1018.58 1019.11 1019.58 1019.84 1020.60 1021.29 1021.51 1021.93 1022.45 1023.21 1023.79 1024.12 1024.15 1024.41 1024.19 1023.29 1022.90 1022.65 1022.21 1021.83 1021.89 1022.32 1022.47 1022.54 1022.22 1021.88 1021.41 1020.64 1020.05 1019.73 1019.65 1019.50 1019.23 1019.04 1018.52 1018.59 1017.98
1005.81 1006.11 1007.26 1009.37 1009.81 1009.30 1009.93 1012.64 1015.66 1017.21 1017.59 1017.84 1018.23 1018.90 1019.30 1019.98 1020.71 1021.36 1021.79 1022.17 1022.88 1023.45 1023.88 1024.14 1024.43 1024.59 1024.63 1023.98 1024.13 1023.83 1023.19 1022.55 1022.47 1022.52 1022.45 1022.07 1021.83 1021.43 1021.02 1020.60 1019.93 1019.46 1019.09 1019.07 1019.13 1019.21 1018.79 1018.40 1017.99
1006.81 1008.60 1010.04 1007.78 1008.98 1009.14 1010.50 1012.41 1015.23 1016.53 1017.22 1017.78 1018.26 1018.45 1019.08 1019.78 1020.30 1021.08 1021.95 1022.54 1022.97 1023.34 1023.74 1024.12 1024.51 1024.92 1024.88 1024.65 1024.30 1023.98 1022.74 1022.19 1022.47 1022.64 1022.27 1022.15 1021.75 1021.43 1020.84 1020.43 1020.03 1019.60 1019.56 1019.21 1018.99 1018.75 1018.71 1018.47 1018.06
1006.17 1008.50 1008.31 1007.84 1008.23 1008.87 1010.78 1010.71 1013.59 1015.44 1016.55 1017.31 1017.85 1018.55 1019.64 1019.67 1020.05 1020.57 1021.86 1022.52 1022.95 1023.38 1023.71 1024.12 1024.44 1024.90 1024.83 1024.63 1024.19 1024.01 1023.44 1023.08 1022.99 1022.71 1022.31 1021.83 1021.77 1021.43 1021.01 1020.66 1020.11 1019.75 1019.47 1019.24 1019.13 1018.94 1018.66 1018.36 1017.97
1007.09 1008.10 1008.14 1007.90 1008.32 1010.36 1011.20 1012.52 1014.37 1014.99 1016.35 1017.88 1017.87 1019.42 1019.48 1019.59 1019.73 1020.56 1021.53 1022.29 1022.96 1023.14 1023.29 1023.64 1024.09 1024.64 1024.76 1024.52 1024.27 1023.86 1023.61 1023.41 1023.00 1022.70 1022.07 1021.86 1021.80 1021.65 1021.05 1020.54 1020.26 1019.74 1019.61 1019.18 1018.96 1018.62 1018.46 1018.27 1018.02
1007.49 1007.63 1007.31 1007.29 1008.40 1011.55 1011.80 1013.06 1014.27 1015.15 1015.99 1017.43 1018.04 1018.42 1018.97 1019.39 1020.17 1021.18 1021.87 1022.32 1022.55 1022.67 1022.93 1023.13 1023.69 1024.60 1024.67 1024.34 1024.07 1023.99 1023.86 1023.46 1023.13 1022.55 1022.18 1021.86 1021.65 1021.47 1020.96 1020.63 1020.19 1019.79 1019.43 1019.04 1018.71 1018.51 1018.27 1018.03 1017.84
1007.40 1006.86 1006.62 1007.31 1007.81 1008.67 1010.67 1011.85 1015.46 1016.57 1016.08 1016.73 1017.41 1018.30 1018.86 1019.76 1020.46 1021.16 1021.69 1021.68 1022.10 1022.58 1023.04 1023.06 1023.65 1024.33 1024.29 1024.17 1024.12 1024.01 1023.90 1023.43 1022.65 1022.41 1022.23 1021.83 1021.17 1021.38 1021.18 1020.66 1020.50 1020.01 1019.63 1019.10 1018.77 1018.49 1018.14 1018.08 1017.86
1007.25 1007.22 1007.65 1008.46 1008.10 1008.91 1011.25 1015.40 1014.82 1016.04 1017.17 1017.53 1017.91 1018.99 1019.15 1019.78 1020.32 1020.97 1021.67 1021.93 1022.01 1022.72 1022.98 1023.18 1023.70 1024.35 1024.35 1024.17 1023.94 1023.91 1023.72 1023.22 1023.01 1022.78 1022.17 1021.83 1021.25 1021.08 1020.83 1020.47 1020.21 1019.83 1019.62 1019.53 1018.97 1018.52 1018.48 1018.57 1018.49
1007.76 1007.67 1008.60 1008.94 1008.94 1009.88 1013.74 1016.33 1015.07 1015.64 1016.48 1016.95 1017.55 1018.60 1019.14 1019.58 1020.50 1021.09 1021.69 1022.22 1022.50 1022.96 1023.04 1023.41 1024.19 1024.45 1024.12 1023.76 1023.78 1023.58 1023.47 1023.28 1023.25 1022.84 1022.31 1021.69 1021.56 1021.05 1020.73 1020.58 1020.24 1019.96 1019.78 1019.63 1019.45 1019.20 1018.96 1018.59 1018.74
1009.14 1009.18 1009.06 1008.78 1009.47 1010.54 1013.41 1015.42 1015.42 1015.64 1015.86 1016.95 1017.71 1018.76 1020.08 1019.80 1020.60 1021.37 1022.10 1022.45 1022.78 1022.95 1023.19 1023.83 1024.39 1024.33 1024.10 1023.85 1023.41 1023.43 1023.41 1023.30 1023.06 1022.54 1021.96 1021.74 1021.78 1021.29 1020.75 1020.73 1020.27 1020.13 1019.96 1020.05 1019.66 1019.30 1019.07 1018.89 1018.79
1009.56 1009.78 1010.53 1010.68 1013.62 1013.23 1013.25 1017.23 1015.96 1016.12 1016.74 1017.24 1017.24 1018.16 1019.08 1019.84 1020.69 1021.49 1022.16 1022.25 1022.55 1022.83 1023.18 1023.91 1024.25 1024.30 1023.84 1023.73 1023.22 1023.34 1023.21 1023.16 1022.84 1022.43 1022.15 1021.65 1021.42 1021.38 1021.18 1020.71 1020.43 1020.16 1020.14 1019.98 1019.74 1019.36 1019.12 1018.99 1018.90
1011.82 1011.96 1012.34 1012.51 1013.56 1013.72 1013.90 1017.23 1017.01 1017.18 1017.26 1017.95 1018.02 1018.41 1019.34 1020.27 1020.85 1021.23 1021.83 1022.18 1023.05 1023.12 1023.35 1023.97 1024.40 1024.21 1023.69 1023.49 1023.15 1023.09 1023.07 1023.06 1022.66 1022.35 1022.15 1021.78 1021.85 1021.64 1021.37 1020.65 1020.81 1020.40 1020.17 1020.11 1019.69 1019.19 1018.96 1018.84 1018.70
Wind_Speed
10 13 12 9 7 6 13 9 5 12 17 16 17 17 19 21 15 10 10 11 10 12 11 14 12 12 13 14 15 14 13 12 11 11 11 10 10 11 11 11 12 11 11 11 11 8 8 8 9
14 13 10 10 3 10 13 15 15 13 10 13 16 19 21 23 22 9 12 14 14 13 12 14 14 14 14 13 14 13 13 12 11 10 10 10 10 11 11 12 12 12 12 13 13 12 9 9 9
17 13 4 6 10 5 14 15 14 13 5 10 11 19 12 10 19 9 12 12 16 14 14 14 15 15 15 14 13 12 12 12 11 10 10 10 10 10 11 12 12 13 13 13 14 13 11 6 7
9 11 8 5 18 17 15 13 16 15 13 14 20 16 12 17 11 9 12 11 14 16 15 17 17 17 16 16 15 14 12 11 11 10 10 10 10 9 9 10 10 11 12 12 12 12 11 10 7
10 10 5 14 15 14 12 15 8 12 3 11 18 18 12 12 13 14 11 12 14 13 12 17 19 20 19 18 18 17 17 15 12 10 9 8 8 8 8 8 8 9 9 10 10 10 9 8 7
12 9 8 13 17 13 11 12 14 12 15 18 17 13 5 6 11 11 13 13 14 14 14 14 19 20 20 18 18 17 17 16 15 13 11 9 7 6 6 5 5 6 6 7 7 8 8 8 7
10 14 14 15 15 15 9 15 11 15 15 12 4 8 4 10 10 11 14 12 11 13 15 12 11 15 20 17 17 16 15 14 13 13 10 7 2 3 1 2 5 6 5 4 5 5 5 5 5
15 7 11 11 14 18 9 14 10 12 11 3 11 6 5 4 9 12 11 13 14 15 16 16 15 15 14 12 12 14 14 14 13 13 15 15 11 9 7 7 8 6 5 5 1 3 4 3 2
29 5 15 16 10 18 12 15 12 14 15 10 9 11 9 5 7 11 10 11 13 13 13 13 12 8 6 7 7 8 9 9 10 9 10 11 11 12 11 10 8 5 4 3 4 4 1 4 7
19 5 19 13 11 14 8 13 12 8 12 12 11 12 7 3 5 10 12 11 13 12 11 11 9 6 6 4 2 3 4 7 4 6 7 4 4 4 5 7 1 1 3 5 4 3 7 11 9
20 15 15 13 12 12 14 12 13 13 10 9 10 10 10 13 14 13 14 13 8 6 9 11 10 10 14 9 7 6 6 6 7 10 10 10 8 5 5 4 4 3 2 4 5 4 4 7 8
11 13 14 12 12 13 13 15 14 14 10 11 11 12 12 12 10 8 7 9 10 10 10 11 12 11 11 9 8 9 7 7 7 9 10 9 8 8 7 6 5 5 6 4 4 2 4 5 7
12 13 12 11 10 12 12 14 15 14 12 11 11 11 12 10 9 5 4 5 9 10 9 10 10 10 10 10 9 9 9 8 10 9 10 9 10 9 9 9 6 8 8 6 5 5 5 6 6
14 13 13 13 14 15 18 17 8 12 12 12 12 12 12 13 11 8 7 8 8 8 8 8 8 9 10 10 12 10 9 10 11 10 10 10 9 10 6 9 11 6 7 7 8 8 5 9 7
15 14 14 14 16 14 14 10 12 13 11 11 11 10 11 12 10 9 7 6 6 5 5 7 9 10 10 11 12 11 11 12 11 10 10 13 11 9 10 10 5 10 7 9 7 8 11 10 10
12 16 9 14 12 12 6 10 12 13 9 9 10 9 10 10 9 8 6 6 6 8 11 8 9 12 12 11 11 11 7 10 9 8 11 12 12 11 9 8 8 10 5 5 7 6 10 11 10
9 10 28 17 12 9 10 14 12 9 9 10 9 9 9 9 8 6 3 11 7 7 7 9 10 12 13 12 8 9 9 8 8 8 7 12 13 11 8 10 9 10 8 9 5 7 5 7 10
14 12 12 2 15 9 4 16 13 10 8 10 11 10 9 8 7 3 7 5 7 9 9 9 9 11 12 10 8 8 8 7 7 9 8 11 9 13 10 9 11 7 7 8 8 7 7 8 7
13 17 8 15 5 6 5 14 12 11 13 9 11 10 9 8 8 5 2 8 8 8 8 8 10 11 10 9 10 10 10 9 8 7 7 7 8 9 10 8 6 7 7 8 8 9 9 9 8
18 15 17 8 5 5 7 12 12 12 12 11 10 11 10 7 11 6 7 6 7 7 7 8 9 9 7 10 7 7 8 7 5 7 9 8 10 9 9 9 9 10 8 9 8 9 9 9 7
12 19 27 12 2 12 8 13 13 13 9 10 9 9 9 13 9 10 6 6 5 5 7 8 8 8 4 6 6 6 10 4 7 8 7 8 9 10 10 11 10 10 8 9 9 8 10 7 7
9 13 9 12 14 15 16 5 17 15 14 12 12 11 7 5 4 6 10 5 3 6 6 6 7 4 6 5 7 9 8 6 6 8 6 6 9 10 11 10 10 7 6 8 7 7 7 6 6
8 13 16 21 16 21 14 10 6 15 12 7 7 12 9 9 5 6 5 5 3 4 5 4 5 5 4 5 7 7 9 7 4 6 6 8 8 9 11 8 8 7 5 6 6 7 7 5 5
4 11 18 12 5 1 9 5 8 7 8 11 11 10 9 7 8 7 6 3 2 6 7 7 10 7 6 7 6 8 8 9 7 8 8 4 5 6 10 11 10 9 9 9 7 8 7 5 3
10 12 12 10 8 9 10 9 15 15 10 11 14 10 10 8 7 7 5 4 3 8 9 8 12 7 7 8 8 8 8 9 9 8 7 9 7 4 8 9 9 9 10 9 7 7 6 5 4
19 9 11 18 14 19 21 16 9 11 11 15 9 9 8 4 6 7 5 6 9 9 8 8 11 8 7 8 9 8 7 7 7 10 7 6 6 5 7 8 9 11 10 8 9 6 5 7 4
14 13 6 14 21 15 4 7 12 12 10 10 10 7 7 6 6 5 4 6 8 9 7 9 8 7 7 9 6 6 7 9 8 9 8 7 7 8 7 8 8 9 10 6 7 5 5 6 2
7 10 12 7 13 8 11 10 9 11 9 4 6 6 4 2 7 5 5 6 6 6 6 7 7 7 4 6 7 7 8 9 6 7 8 6 7 7 8 9 8 8 9 6 5 5 6 4 3
13 5 9 7 7 12 4 1 10 14 15 13 11 8 7 5 3 4 2 4 7 7 6 9 7 8 7 7 7 6 6 7 7 5 8 8 6 10 8 7 7 6 7 6 6 5 4 6 4
9 8 9 11 4 3 6 8 11 11 10 9 13 8 9 9 6 6 6 9 10 8 9 7 4 5 5 7 7 8 8 7 6 7 6 6 8 7 9 6 8 7 6 6 5 3 5 6 6
Wind_Direction
201 221 238 249 248 164 109 106 76 70 69 64 63 68 67 45 35 71 72 79 53 75 77 82 58 56 69 78 73 72 72 74 74 74 73 73 72 67 62 61 58 56 58 53 45 40 102 118 115
243 224 239 274 359 330 89 86 81 81 84 114 113 98 75 74 85 61 87 65 84 81 75 68 68 67 66 63 71 73 73 73 77 77 77 75 72 67 61 58 54 51 48 47 45 43 94 111 108
255 244 271 218 94 230 83 80 99 103 154 112 73 44 37 349 61 66 82 78 78 82 80 75 74 74 73 68 66 72 75 73 71 71 72 70 64 60 59 55 54 53 49 45 42 39 41 65 100
260 237 210 192 63 72 82 100 109 112 94 86 129 92 95 33 56 92 83 92 94 87 81 77 74 70 66 65 63 60 65 69 75 73 65 65 62 58 53 50 48 48 47 46 45 40 36 37 48
231 226 137 80 85 74 77 85 59 77 72 86 93 88 72 34 58 62 64 53 64 76 87 78 70 66 61 58 57 57 57 59 58 59 65 66 61 53 50 43 39 41 42 45 40 37 39 39 35
275 49 325 95 86 77 70 80 75 72 76 44 90 88 60 37 54 68 64 64 70 78 73 76 79 74 64 59 57 56 54 51 48 44 42 43 46 46 48 38 28 26 27 36 41 48 41 45 32
195 154 103 101 111 94 64 85 80 70 54 47 18 91 89 55 62 69 65 62 87 81 87 75 79 101 87 64 61 59 55 54 48 38 24 359 283 168 172 100 34 7 360 7 31 43 49 43 36
307 343 127 84 123 106 96 70 75 18 67 95 1 124 113 65 70 85 87 72 65 57 54 54 51 37 29 67 60 57 48 40 35 26 9 339 280 241 195 161 59 15 1 328 16 72 48 23 23
67 345 67 33 59 109 144 104 79 70 66 49 38 62 93 105 117 101 90 88 77 66 70 65 61 42 32 31 34 74 73 63 40 19 15 355 353 344 350 45 38 6 341 66 108 115 168 250 237
102 210 70 63 99 119 137 102 126 103 83 84 69 70 78 82 60 75 73 74 70 70 78 80 78 104 121 139 207 167 107 29 36 20 358 304 338 327 301 321 29 278 304 269 236 236 259 252 251
59 75 88 79 85 106 100 92 103 135 73 74 97 91 71 59 49 61 67 63 66 47 47 61 83 44 6 29 7 6 1 1 350 1 354 342 328 235 231 215 238 229 18 281 270 261 314 333 337
86 81 96 113 117 113 99 92 64 66 100 107 106 116 110 94 85 85 99 88 68 67 51 46 50 32 31 7 10 353 356 346 353 349 343 349 321 312 298 311 311 250 220 184 209 298 317 318 308
122 116 119 125 128 111 134 83 101 101 115 118 117 115 108 103 102 113 158 121 89 70 49 49 43 29 19 8 360 349 343 348 336 337 343 348 318 2 336 330 307 296 297 270 222 217 212 229 223
131 139 134 138 119 117 123 130 140 139 136 139 142 138 132 127 127 134 156 100 75 70 51 31 40 32 12 9 354 336 338 335 334 329 350 325 330 355 305 313 295 323 347 348 341 321 312 285 238
141 152 141 148 154 142 137 121 102 136 152 137 136 138 136 133 156 129 101 75 45 63 58 21 13 30 11 350 347 332 340 341 324 335 330 8 9 339 331 301 283 308 324 314 282 291 277 267 267
193 179 164 174 170 146 234 112 134 146 157 145 160 151 139 164 137 102 94 84 30 20 26 21 14 10 0 347 333 337 349 318 331 333 358 2 344 334 321 311 317 314 288 287 292 290 301 289 278
299 300 216 140 180 152 215 117 153 157 158 167 173 170 147 146 126 94 78 73 26 34 26 13 13 6 354 335 330 304 344 329 330 344 8 356 338 317 322 312 303 319 305 291 320 334 318 319 314
185 219 230 169 153 205 195 112 150 159 188 203 172 165 149 136 126 105 60 111 70 45 34 18 10 13 338 328 336 347 333 342 338 24 2 350 323 321 301 291 294 297 289 294 300 293 281 290 286
320 301 319 86 78 232 109 149 168 179 204 185 181 154 157 171 123 91 106 54 53 47 35 17 4 8 342 353 346 354 341 337 10 340 1 329 307 303 308 284 295 299 270 266 276 298 275 265 268
292 288 64 339 214 233 167 142 150 177 192 186 158 171 148 113 140 172 113 78 74 49 21 23 8 10 357 351 340 342 311 308 351 11 334 328 337 322 315 322 304 306 297 282 298 293 289 293 289
52 37 319 19 160 239 315 147 165 187 178 177 173 147 178 156 123 106 76 55 64 43 26 22 15 11 2 354 356 342 314 15 358 341 345 343 334 337 331 324 316 307 310 292 309 294 286 279 281
358 163 268 310 272 296 185 248 167 174 182 190 176 87 21 111 134 105 138 120 69 28 23 25 44 17 353 13 351 345 317 350 352 325 329 327 356 343 355 348 333 329 311 302 306 306 304 298 286
353 337 313 296 283 351 5 76 261 162 180 168 121 150 204 162 103 99 113 98 76 35 13 41 50 47 359 341 1 345 4 344 322 310 331 8 360 345 349 356 336 339 342 317 315 313 320 292 280
325 289 281 271 339 118 234 215 168 160 184 181 160 150 164 144 108 107 104 140 57 32 11 5 69 45 351 320 340 358 2 335 334 333 342 342 357 358 2 355 2 353 345 343 324 319 313 316 315
247 278 289 311 253 302 210 225 49 48 83 136 144 167 118 113 142 160 179 52 24 28 15 355 59 18 346 347 359 340 352 322 324 345 327 333 355 16 350 348 349 339 340 330 325 310 318 36 17
304 353 318 305 332 315 37 17 100 99 133 126 106 50 94 132 135 108 73 16 16 17 26 355 46 19 331 20 355 351 337 344 349 333 340 319 345 352 344 339 356 360 8 17 356 359 68 70 40
332 315 351 299 274 298 122 177 91 111 87 66 125 156 163 134 73 104 92 16 13 6 33 16 19 7 352 333 15 3 11 10 349 320 313 357 354 329 23 344 358 0 25 37 41 46 52 60 49
295 6 322 325 297 296 87 77 48 83 86 156 97 91 179 29 82 81 22 2 7 12 35 52 47 325 8 328 6 11 3 352 343 325 342 351 350 329 0 346 3 9 33 44 18 32 50 56 0
332 30 333 338 41 297 78 122 45 39 35 11 4 97 107 77 118 65 27 356 11 7 24 52 26 334 346 310 0 343 356 348 339 6 337 348 2 7 348 330 359 19 36 29 8 14 43 61 59
30 358 356 330 359 341 319 34 61 38 32 36 343 53 36 13 6 47 312 27 26 345 56 24 347 322 329 296 356 352 360 332 336 359 355 353 30 356 314 22 359 350 37 23 351 7 38 35 35